STARLINK-34228, 64171

Orbit data source: Space-Track

STARLINK-34228, 64171 is a payload satellite owned by SpaceX/Seattle (US) in LEO that was launched on Wed, 28 May 2025 UTC via an FALCON 9 launch vehicle from the Air Force Eastern Test Range (AFETR). Payload-class satellites include a variety of spacecraft equipped with specific instruments for various scientific and technological missions. These include communications satellites like Starlink; space stations such as the ISS; scientific satellites like the Hubble; Earth observation satellites from companies like Planet Labs, Umbra, and HawkEye 360; GPS; miniature CubeSats for education and research; and military/defense satellites.

Loading next visibility...
Identifier
64171, 2025-113B
Orbit
LEO
Country
Flag of USUS
Related business
Manufacturer
SpaceX/Seattle
Mission
Operational Commercial Communications
Bus & Motor
STARLINK V2MO, Unknown motor
Mass
575 kg wet, ~530 kg dry
Launch date (UTC)
2025-05-28 (1 year ago)
Launch vehicle
FALCON 9
Launch site
Air Force Eastern Test Range (AFETR)
Object type
Payload
Rocket body
Debris
Shape & HBR
Box + 2 Pan, 17.7 m
Radar Cross Section
36.964 m², Large (>1 m²)

Expand to show TLE details & history
Last TLE update: 17 hours ago

TLE from 17 hours ago
0 STARLINK-34228
1 64171U 25113B   26171.14510062  .00013751  00000-0  45391-3 0  9999
2 64171  53.1601 334.3767 0001159  68.3823 291.7302 15.31711289 60767
Epoch: 2026-06-20T03:28Z
TLE epoch observation values (Epoch: 2026-06-20T03:28:56.693Z)
Latitude
-0.00001°
Longitude
13.77654°
Altitude
471.313 km
Speed
7.632 km/s
True Right ascension
22h 17m 30s
True Declination
0° 00' 00"
Sunlit
Object was in full shadow at epoch
Visualization orbit readout
Latitude
Unknown
Longitude
Unknown
Altitude
Unknown
Speed
Unknown
Apparent Right ascension
Unknown
Apparent Declination
Unknown
Sunlit
N/A
Visualization observer readout
Local Sidereal Time
07:15:26
Azimuth
Unknown
Elevation
Unknown
Doppler factor
Unknown
Orbital elements
Apogee altitude
471.757 km
Perigee altitude
470.169 km
Semi-major axis
6,849.1 km
Eccentricity
0.00012
Inclination
53.1601°
RAAN
334.3767°
Arg. of periapsis
68.3823°
True anomaly
291.71786°
Mean anomaly
291.7302°
Eccentric anomaly
291.72403°
Mean motion
3.82907 °/min
Orbital period
94.02 mins
BSTAR
0.00045391
Loading maneuver chart data...
Computing Atmospheric mass density...
Loading historical data...
Loading historical data...
Loading historical data...
Loading historical data...
Loading historical data...
Loading historical data...
Loading historical data...

Documentation

Showing up to 5 results
|